Zurück zum Katalog

THOR ABLESTAR R/B

AktivPO
NORAD 1508·ROCKET BODY·🇺🇸 United States

Gestartet Aug 13, 1965 von Vandenberg Space Force Base

Loading…

Nächste Überflüge (nächste 24 Stunden)

TLE

AktuellSource: Space-Track

Epoche: Sep 14, 2026, 15:10 UTC

1 01508U 65065B   26257.63262623  .00000017  00000-0  15443-4 0  9997
2 01508  90.1286 308.8626 0043906  80.4659  73.0373 13.36099106977351

Verfolge THOR ABLESTAR R/B in Echtzeit mit AllMySat

Download on the App Store